Temperature
21 20 19 19 18 19 19 19 19 19 18 18 17 17 17 17 17 17 17 17 17 17 17 17 17 17 17 17 17 17 17 17 17 17 17 17 17 17 17 17 17 17 16
21 20 19 19 18 18 18 18 18 18 18 18 18 17 17 17 17 17 17 17 17 17 17 17 17 17 17 17 16 17 17 17 17 17 18 18 18 17 18 17 17 17 17
22 20 19 19 19 18 18 18 18 18 18 18 17 17 17 17 17 17 17 17 17 17 17 17 17 17 17 17 17 17 17 17 17 17 18 18 19 18 18 17 17 17 17
22 21 20 19 19 18 18 18 18 18 18 18 17 17 17 17 17 17 17 17 17 17 17 17 17 17 17 17 17 17 17 16 17 17 17 17 18 18 19 18 18 17 17
22 21 20 19 19 19 18 18 18 18 18 17 17 17 17 17 17 17 17 17 17 17 17 17 17 17 17 17 16 16 16 17 17 17 17 17 17 18 18 19 18 18 17
22 21 20 19 19 19 18 18 18 18 18 17 17 17 17 17 17 17 17 17 17 17 17 17 17 17 17 16 16 16 16 16 16 17 17 17 18 18 18 18 18 18 18
22 21 20 19 19 19 18 18 18 18 18 17 17 17 17 17 17 17 17 17 17 17 17 17 17 17 16 16 16 16 16 16 16 16 17 17 17 17 18 18 18 18 18
22 21 20 19 19 18 18 18 18 18 17 17 17 17 17 17 17 17 17 17 17 17 17 17 17 17 16 16 16 16 16 16 16 16 16 16 17 17 17 17 18 18 18
22 21 20 19 19 18 18 18 17 17 17 17 17 17 17 17 17 17 17 17 17 16 16 17 16 16 16 16 16 16 16 16 16 16 16 16 16 16 17 17 17 18 18
22 21 20 19 18 18 18 17 17 17 17 17 17 17 17 17 17 16 17 16 16 16 16 16 16 16 16 16 16 16 16 15 16 16 16 16 16 16 16 16 16 17 17
22 21 20 19 18 18 17 17 17 17 17 17 16 16 16 16 16 16 16 16 16 16 16 16 16 16 16 16 16 15 15 15 15 15 15 15 15 16 16 16 16 16 16
21 20 19 18 18 17 17 17 17 16 17 17 16 16 16 16 16 16 16 16 16 16 16 16 16 16 16 16 16 15 15 15 15 15 15 15 15 15 15 15 16 16 16
20 19 19 18 18 17 17 17 16 16 16 16 16 16 16 16 16 16 16 16 16 16 15 15 15 15 15 15 15 15 15 15 15 15 15 15 15 15 15 15 15 15 15
19 19 18 18 17 17 17 16 16 16 16 16 16 16 16 16 16 16 16 16 15 15 15 15 15 15 15 15 15 15 15 14 14 14 14 14 14 14 14 14 14 14 14
19 19 18 17 17 17 16 16 16 16 16 16 16 16 16 16 16 15 15 15 15 15 15 15 15 15 15 15 15 14 14 14 14 14 14 14 14 14 13 13 13 13 13
19 18 18 17 17 17 16 16 16 16 16 16 16 16 15 15 15 15 15 15 15 15 15 15 15 15 14 14 14 14 14 14 13 13 13 13 13 13 13 13 13 12 12
19 18 17 17 17 17 16 16 16 16 16 16 15 15 15 15 15 15 15 15 15 14 14 14 14 14 14 14 14 13 13 13 13 12 12 12 12 12 12 12 12 12 11
18 17 17 16 16 16 16 16 16 16 15 15 15 15 15 15 15 15 14 14 14 14 14 14 14 13 13 13 13 13 13 12 12 12 11 11 11 11 11 10 10 10 10
17 17 17 16 16 16 16 16 15 15 15 15 15 15 15 15 14 14 14 14 14 13 13 13 13 13 12 12 12 12 12 11 11 10 10 10 10 10 9 9 9 9 8
16 16 16 16 16 16 16 15 15 15 15 15 15 14 14 14 14 14 14 13 13 13 13 12 12 12 12 11 11 11 11 11 10 9 9 9 9 9 8 8 8 8 7
15 15 15 15 15 15 15 15 15 15 15 14 14 14 14 14 14 13 13 13 13 12 12 12 11 11 11 10 10 10 10 10 9 8 8 8 8 8 8 8 7 7 6
15 15 15 15 15 15 15 14 14 14 14 14 14 14 13 13 13 13 13 12 12 12 11 10 10 10 9 9 9 9 9 8 8 8 7 7 7 7 7 6 6 6 5
14 14 14 14 14 14 14 14 14 14 14 14 13 13 13 12 12 12 12 11 11 11 10 10 9 8 8 8 8 8 8 8 8 7 7 6 6 6 5 5 5 5 5
13 13 13 14 14 14 14 13 13 13 13 13 12 12 12 12 11 11 11 10 10 10 9 9 8 8 7 7 7 7 7 6 6 6 5 5 5 5 4 4 4 4 4
12 12 13 13 13 13 13 13 13 13 12 12 12 11 11 11 10 10 9 9 9 9 9 8 8 7 7 6 6 6 6 5 5 5 5 5 4 4 4 4 4 4 3
12 12 12 12 12 12 12 12 12 12 12 11 11 10 10 10 9 9 8 8 8 8 8 7 7 6 6 6 6 6 5 5 5 5 5 4 4 4 4 4 3 3 3
Wind_Speed
9 11 12 13 14 14 16 16 16 15 13 10 10 10 10 8 8 8 9 10 10 10 9 7 6 6 6 5 6 5 6 5 4 4 4 4 5 4 5 5 5 6 6
9 10 12 13 14 15 16 16 16 15 14 11 9 8 8 8 8 8 9 10 10 10 10 8 7 7 5 6 6 6 5 4 5 4 4 4 5 5 6 5 6 6 6
9 10 12 13 14 15 16 15 15 15 15 13 9 8 6 6 8 8 8 9 11 11 9 8 8 6 7 7 7 7 7 5 5 5 4 3 2 4 5 5 6 5 5
8 9 11 12 13 14 14 14 14 14 14 14 12 13 11 11 11 9 8 8 9 10 10 9 8 7 7 6 8 8 6 6 6 5 4 4 3 3 3 5 6 6 6
7 8 10 11 12 12 12 13 13 13 14 14 14 14 12 11 9 9 9 8 8 9 10 9 7 7 7 7 7 6 7 7 7 6 5 5 4 5 4 2 3 5 5
6 7 8 9 10 10 10 11 12 13 13 14 14 15 15 13 12 11 10 9 7 8 9 9 8 8 7 7 8 7 8 7 6 6 5 5 5 5 4 4 4 4 4
7 8 9 9 9 10 10 11 12 13 13 14 14 14 14 14 13 12 11 10 8 8 9 9 8 8 7 8 7 7 7 7 7 7 6 5 5 4 4 4 3 3 3
7 8 8 8 8 9 9 10 10 11 12 13 13 12 13 11 10 11 10 9 7 8 8 9 8 9 9 9 7 7 7 6 7 7 6 5 6 5 5 5 4 4 4
7 7 7 7 7 7 8 8 9 9 10 11 11 10 11 10 10 10 10 8 7 7 8 9 9 9 9 8 8 7 7 6 7 7 7 7 5 5 5 4 4 5 5
7 7 7 6 6 6 6 7 7 8 8 9 10 9 10 10 9 9 9 7 7 7 8 9 9 9 8 8 8 7 7 6 6 5 5 5 5 4 4 4 4 4 5
7 7 6 6 6 6 6 6 7 7 7 8 9 9 9 9 9 8 7 7 7 8 8 8 8 8 8 8 8 8 7 7 6 6 6 5 4 3 3 3 3 4 4
7 7 7 7 6 6 6 7 7 7 7 7 8 8 8 8 7 7 7 7 7 7 7 7 7 7 7 7 8 8 7 6 6 6 6 6 4 4 3 3 3 3 3
7 7 7 7 7 7 6 6 6 6 6 7 7 7 8 8 7 7 6 7 6 6 7 7 7 7 6 6 6 6 5 4 4 3 4 4 3 3 2 2 2 2 3
8 8 7 7 7 7 7 6 6 6 6 7 7 7 7 7 7 6 6 7 6 6 6 6 6 6 5 5 5 5 4 3 3 2 2 2 2 1 1 1 1 1 1
8 8 7 7 7 7 7 6 6 6 7 7 7 7 7 7 7 7 7 6 6 6 6 6 5 5 5 5 6 6 6 6 7 7 8 9 11 12 8 4 4 3 2
7 8 7 8 8 7 7 7 7 7 7 8 8 8 8 7 7 7 7 7 7 6 6 6 6 5 4 7 8 7 7 8 9 9 9 10 12 15 16 17 15 11 6
6 7 7 7 7 7 7 7 7 7 7 7 8 8 8 8 7 8 8 8 8 8 8 7 7 8 9 12 12 11 10 10 9 9 8 8 9 10 10 13 15 16 16
5 5 5 6 6 7 7 7 7 8 8 8 8 8 8 8 8 8 8 8 8 8 8 8 9 10 11 13 14 14 12 11 11 10 9 9 9 8 9 10 11 11 11
4 4 4 5 6 6 7 8 7 8 7 7 8 8 9 9 9 9 9 8 9 9 9 9 10 11 11 12 13 13 11 11 12 10 10 9 10 10 9 10 10 10 10
4 4 4 5 6 6 7 8 8 8 8 7 7 8 9 10 10 10 11 10 10 11 11 11 11 11 10 11 11 11 10 11 11 10 11 13 11 10 8 8 9 9 7
4 4 4 5 5 5 7 7 7 7 7 8 8 8 9 10 11 12 11 12 12 12 12 13 12 12 12 12 11 10 9 10 11 9 9 9 13 12 11 9 9 7 5
4 4 5 5 5 5 6 7 6 6 7 9 9 10 9 9 11 13 13 13 14 14 13 13 13 11 11 11 12 12 11 10 11 10 9 10 13 13 12 10 8 4 2
4 4 5 6 5 4 5 6 6 7 9 10 10 11 11 10 10 12 12 11 11 11 11 11 11 10 10 11 15 15 15 14 12 12 15 13 12 12 11 10 5 3 5
4 4 5 5 5 5 5 5 6 8 10 11 11 12 13 12 11 9 9 9 9 11 11 11 11 11 10 9 9 11 13 15 14 13 14 12 10 8 8 6 5 6 7
4 4 5 6 6 6 6 6 7 9 11 12 13 13 12 13 12 12 10 9 8 7 10 11 11 11 11 8 8 9 10 10 10 9 8 8 7 7 6 6 6 5 5
5 6 7 7 7 7 8 7 7 10 12 13 12 11 11 12 13 13 14 19 16 18 17 14 12 12 13 14 14 14 13 11 6 6 8 7 6 6 5 5 5 5 6
Wind_Direction
187 186 190 188 185 184 186 187 188 187 184 185 188 189 193 195 200 204 199 202 208 203 209 215 194 212 212 211 208 209 195 210 202 215 204 202 207 207 201 209 207 199 204
184 182 186 187 189 187 189 190 191 189 190 190 191 194 191 193 199 204 198 204 210 210 207 212 212 208 208 209 213 216 223 209 207 232 230 217 196 208 204 198 209 215 208
188 185 188 190 191 191 192 193 195 193 193 188 185 184 182 193 198 202 202 206 210 211 217 209 218 212 217 207 210 212 219 223 212 231 249 252 232 182 185 205 207 206 217
190 187 190 191 193 193 191 194 197 197 195 189 190 190 196 201 203 201 198 199 208 211 212 215 214 216 221 209 215 211 222 227 225 213 241 278 321 271 195 194 197 200 212
188 185 187 189 189 189 188 190 195 198 198 196 196 199 204 207 204 200 195 201 204 208 210 211 213 215 222 217 225 208 227 226 233 227 218 222 229 250 267 224 194 192 200
176 172 171 173 177 182 186 188 192 196 197 199 201 203 206 204 201 200 198 202 203 208 208 210 211 215 220 213 218 219 220 235 238 245 236 231 234 235 242 238 220 204 180
168 164 165 169 175 180 184 190 195 198 198 201 205 208 208 207 205 203 203 204 204 208 204 208 205 212 215 214 215 216 228 222 222 230 236 240 249 257 255 261 250 228 188
161 159 161 165 171 178 184 191 196 200 199 202 207 208 206 207 208 206 207 206 210 211 201 203 204 209 212 211 209 218 217 218 220 228 236 240 240 246 247 256 261 248 224
156 155 156 160 165 176 184 190 191 193 195 200 200 200 203 206 205 200 205 207 208 207 200 199 204 210 211 210 207 219 219 215 219 222 216 231 231 238 245 251 260 265 263
155 156 158 157 160 165 171 181 183 187 192 193 196 194 196 197 199 201 201 202 204 205 199 202 204 203 205 206 208 213 211 214 219 232 233 233 235 230 233 244 254 267 276
158 156 155 152 153 158 164 172 179 183 188 189 191 190 190 192 192 195 195 194 198 193 193 196 197 199 201 201 202 213 205 212 211 214 214 217 238 227 229 235 249 256 264
154 153 152 153 157 160 162 169 176 181 184 184 182 181 182 183 183 185 184 183 184 186 186 187 191 195 196 195 198 205 204 207 210 214 214 211 203 206 235 238 244 254 269
153 153 155 159 161 162 165 170 172 171 173 173 173 173 173 174 175 173 168 170 171 175 178 182 186 189 184 184 186 188 192 196 199 198 201 207 205 208 214 251 260 268 261
158 162 162 164 164 165 164 168 166 162 160 161 161 162 165 165 163 161 160 163 164 167 170 174 178 178 170 169 171 167 160 147 123 105 99 90 96 104 99 80 10 335 314
163 170 170 167 167 168 166 167 163 158 155 153 153 153 154 153 151 149 148 150 154 158 154 151 154 156 161 164 158 151 141 129 110 91 80 74 72 64 60 63 58 49 47
165 170 169 169 171 173 172 169 165 158 155 152 152 149 146 146 142 139 139 138 135 135 133 134 133 128 125 103 108 123 121 115 110 103 96 89 82 79 74 68 61 55 62
160 165 167 170 172 174 172 168 163 158 156 154 151 148 143 140 138 136 133 133 130 123 118 116 112 103 95 98 101 103 110 106 103 103 102 98 92 92 92 83 77 66 59
147 152 160 164 167 164 162 160 156 157 156 155 153 146 141 137 133 128 126 125 122 118 113 106 103 99 96 98 102 104 104 99 95 93 94 97 92 87 90 90 83 74 63
125 137 147 151 150 153 154 154 153 152 154 158 156 150 145 141 135 130 126 122 117 110 105 103 102 102 100 97 103 108 107 102 95 91 87 93 95 79 85 95 93 89 84
103 119 132 137 138 144 152 153 154 154 158 160 155 150 147 143 138 132 126 120 114 111 109 104 101 103 102 93 97 105 110 107 103 94 85 77 81 71 70 94 97 92 86
95 110 121 125 129 143 153 155 151 153 151 146 142 138 137 136 131 125 123 121 116 111 106 101 95 92 93 91 87 94 110 113 110 104 97 86 78 73 69 77 86 85 86
100 111 117 115 115 130 145 147 146 141 134 132 129 126 125 124 124 124 123 122 121 116 110 105 99 91 88 87 86 85 92 103 107 104 101 98 90 82 74 78 77 69 59
104 112 118 115 109 117 138 140 137 131 127 123 121 118 112 109 114 119 122 121 120 118 116 113 108 102 98 92 88 88 88 88 96 99 101 104 106 105 90 82 69 60 60
100 108 114 115 107 102 105 114 120 125 124 122 119 115 112 106 100 102 107 112 117 120 120 118 115 112 109 109 110 108 105 106 106 108 111 109 96 97 101 106 77 61 51
94 104 109 108 106 104 101 102 114 124 125 122 118 114 110 106 96 85 78 91 87 102 117 119 120 121 118 108 102 114 116 116 117 124 122 116 111 101 90 78 66 57 49
101 104 104 101 98 99 98 100 112 126 125 120 118 116 113 109 107 101 86 65 74 72 72 81 102 99 102 105 95 91 92 100 123 124 112 106 100 92 86 78 69 57 43
Height
1498 1499 1500 1502 1505 1507 1510 1514 1517 1521 1525 1529 1532 1536 1539 1543 1546 1549 1552 1554 1557 1559 1561 1564 1565 1567 1569 1570 1572 1573 1574 1575 1576 1578 1578 1578 1578 1579 1579 1580 1581 1582 1583
1496 1497 1498 1500 1502 1505 1508 1511 1515 1518 1522 1526 1529 1533 1537 1540 1544 1547 1549 1552 1554 1557 1560 1561 1563 1565 1567 1568 1570 1571 1573 1574 1575 1576 1577 1577 1579 1577 1578 1579 1579 1580 1581
1493 1495 1496 1498 1500 1503 1505 1509 1512 1515 1519 1523 1527 1531 1534 1537 1541 1543 1546 1549 1552 1555 1557 1559 1561 1563 1565 1567 1568 1570 1571 1573 1574 1575 1576 1576 1575 1576 1577 1577 1578 1578 1579
1491 1493 1494 1496 1498 1501 1504 1507 1510 1513 1516 1520 1524 1527 1530 1534 1537 1541 1544 1547 1550 1552 1555 1557 1559 1561 1563 1564 1566 1568 1570 1571 1572 1573 1573 1574 1574 1575 1575 1576 1576 1576 1577
1489 1491 1492 1494 1497 1499 1502 1504 1507 1510 1513 1516 1520 1524 1527 1531 1535 1538 1541 1544 1547 1549 1552 1554 1556 1558 1560 1562 1564 1566 1567 1569 1570 1571 1572 1573 1573 1574 1574 1574 1575 1575 1576
1488 1490 1492 1493 1496 1498 1500 1503 1505 1507 1511 1513 1517 1520 1523 1527 1531 1534 1538 1541 1544 1546 1549 1551 1553 1555 1558 1559 1561 1563 1565 1566 1568 1569 1570 1571 1572 1572 1573 1573 1574 1574 1575
1487 1489 1491 1493 1494 1496 1498 1500 1502 1505 1508 1511 1514 1517 1520 1524 1527 1531 1534 1537 1540 1543 1545 1548 1550 1552 1555 1557 1559 1560 1562 1563 1565 1566 1568 1569 1570 1571 1571 1572 1572 1573 1573
1486 1488 1490 1492 1494 1495 1497 1499 1501 1503 1505 1508 1511 1514 1517 1521 1524 1528 1531 1534 1537 1540 1542 1544 1547 1549 1552 1554 1556 1558 1559 1560 1562 1564 1565 1566 1568 1569 1570 1570 1571 1571 1571
1485 1488 1490 1491 1493 1494 1496 1498 1499 1501 1503 1506 1508 1511 1514 1517 1521 1524 1527 1530 1533 1536 1538 1540 1543 1546 1548 1551 1553 1555 1556 1558 1559 1561 1562 1564 1565 1566 1567 1568 1569 1570 1569
1485 1487 1489 1491 1492 1494 1495 1497 1498 1500 1502 1504 1506 1508 1511 1514 1517 1520 1523 1526 1529 1532 1534 1537 1540 1542 1545 1547 1549 1552 1553 1555 1557 1558 1559 1561 1562 1563 1564 1565 1566 1567 1568
1484 1487 1489 1490 1492 1493 1494 1496 1497 1498 1500 1502 1504 1506 1509 1512 1514 1517 1519 1523 1525 1528 1531 1534 1536 1539 1542 1544 1546 1549 1551 1552 1554 1556 1557 1558 1559 1561 1562 1563 1564 1565 1565
1484 1486 1488 1490 1491 1492 1494 1495 1496 1498 1499 1501 1502 1504 1507 1509 1512 1514 1517 1520 1522 1525 1528 1531 1534 1537 1539 1541 1544 1546 1548 1550 1551 1553 1554 1555 1557 1557 1559 1560 1561 1562 1562
1484 1486 1487 1489 1490 1492 1493 1495 1496 1497 1498 1500 1501 1503 1505 1507 1510 1512 1515 1518 1521 1523 1526 1529 1532 1534 1537 1539 1541 1543 1546 1547 1549 1550 1552 1553 1554 1555 1556 1557 1558 1559 1560
1483 1485 1487 1488 1490 1491 1493 1494 1495 1496 1497 1499 1500 1502 1504 1506 1509 1511 1514 1516 1519 1522 1524 1527 1530 1532 1535 1537 1539 1541 1543 1545 1546 1548 1549 1550 1551 1552 1553 1554 1555 1556 1557
1483 1484 1486 1487 1489 1491 1492 1493 1495 1495 1496 1498 1499 1501 1503 1506 1508 1510 1513 1515 1518 1520 1523 1525 1528 1530 1533 1535 1537 1539 1540 1542 1544 1546 1547 1548 1549 1550 1551 1552 1553 1553 1554
1482 1483 1485 1487 1488 1489 1491 1492 1494 1495 1496 1497 1499 1501 1503 1505 1508 1510 1512 1515 1517 1519 1521 1524 1526 1528 1531 1533 1535 1537 1538 1540 1542 1543 1545 1546 1548 1549 1550 1550 1551 1552 1552
1481 1483 1484 1485 1487 1489 1490 1492 1493 1495 1496 1497 1499 1501 1503 1505 1507 1510 1512 1514 1516 1519 1521 1523 1525 1527 1529 1532 1534 1535 1537 1539 1540 1542 1544 1545 1546 1548 1549 1549 1550 1550 1550
1481 1483 1484 1485 1486 1488 1489 1491 1493 1494 1496 1497 1499 1500 1502 1505 1507 1510 1512 1514 1516 1518 1521 1523 1525 1526 1529 1531 1533 1535 1536 1538 1540 1541 1543 1544 1545 1546 1547 1548 1549 1549 1549
1481 1482 1483 1484 1485 1487 1488 1490 1492 1493 1495 1497 1499 1500 1502 1504 1506 1509 1511 1514 1516 1518 1520 1522 1524 1526 1528 1530 1532 1534 1536 1537 1539 1541 1543 1544 1545 1546 1547 1548 1549 1549 1549
1480 1481 1482 1484 1485 1486 1488 1490 1491 1493 1494 1496 1498 1500 1502 1504 1506 1508 1511 1513 1515 1518 1520 1522 1524 1526 1528 1530 1532 1534 1535 1536 1538 1540 1542 1544 1545 1547 1547 1548 1549 1549 1549
1480 1481 1482 1483 1484 1486 1487 1489 1490 1492 1494 1496 1498 1499 1501 1503 1505 1507 1510 1512 1515 1517 1520 1522 1524 1527 1529 1531 1533 1534 1536 1537 1539 1541 1543 1544 1546 1547 1547 1548 1548 1548 1549
1480 1481 1482 1482 1484 1485 1486 1487 1489 1491 1493 1495 1497 1499 1501 1503 1505 1507 1509 1512 1514 1517 1520 1522 1524 1527 1530 1532 1534 1536 1537 1539 1540 1542 1543 1545 1546 1547 1548 1548 1549 1549 1550
1480 1481 1481 1482 1483 1484 1485 1486 1488 1490 1492 1494 1496 1498 1500 1503 1505 1507 1509 1512 1514 1517 1519 1522 1524 1527 1531 1533 1535 1537 1539 1540 1542 1543 1544 1546 1547 1548 1549 1550 1550 1551 1552
1479 1480 1481 1481 1482 1483 1484 1485 1487 1489 1491 1493 1495 1497 1500 1502 1505 1508 1510 1513 1515 1518 1520 1523 1526 1528 1531 1534 1537 1539 1540 1542 1543 1545 1546 1547 1549 1550 1551 1551 1552 1553 1552
1479 1479 1480 1480 1481 1482 1483 1485 1486 1489 1491 1493 1495 1498 1500 1503 1506 1508 1511 1514 1517 1520 1522 1525 1528 1530 1532 1536 1538 1540 1542 1544 1545 1547 1549 1551 1552 1553 1554 1554 1554 1554 1554
1478 1479 1480 1480 1481 1482 1483 1485 1486 1488 1490 1492 1495 1498 1501 1504 1507 1509 1513 1517 1520 1523 1526 1528 1530 1533 1535 1538 1541 1543 1545 1546 1548 1551 1552 1553 1555 1555 1556 1556 1556 1555 1555